Regional Weather Roundup
Issued by NWS

Home | Current Version | Previous Version | Graphics & Text | Print | Product List | Glossary On
Versions: 1 2 3 4 5 6 7 8 9 10 11 12 13 14 15 16 17 18 19 20 21 22 23 24 25 26 27 28 29 30 31 32 33 34 35 36 37 38 39 40 41 42 43 44 45 46 47 48 49 50
000
ASUS43 KIND 291709
RWRIN

WEATHER ROUNDUP FOR INDIANA
NATIONAL WEATHER SERVICE INDIANAPOLIS IN
100 PM EDT MON SEP 29 2014

NOTE: "FAIR" INDICATES FEW OR NO CLOUDS BELOW 12,000 FEET WITH NO
SIGNIFICANT WEATHER AND/OR OBSTRUCTIONS TO VISIBILITY.

* - STATION DOES NOT REPORT WEATHER SUCH AS PRECIPITATION OR FOG.

+ - STATION NOT QUALITY CONTROLLED BY THE NATIONAL WEATHER SERVICE.
    USE DATA WITH CAUTION...ESPECIALLY DEWPOINT AND RELATIVE
    HUMIDITY OBSERVATIONS.

INZ001>003-010>013-019-020-291800-
NORTHWEST INDIANA

CITY           SKY/WX    TMP DP  RH WIND       PRES   REMARKS
GARY /AIRPORT/ SUNNY     77  55  47 S5        30.03F
KNOX *+        SUNNY     74  54  49 NW5       30.02F
LA PORTE +     SUNNY     77  56  48 CALM      30.03F
MICHIGAN CITY+ SUNNY     73  52  46 N3        30.03F
MONTICELLO +   SUNNY     77  55  46 CALM      30.02F
RENSSELAER +   SUNNY     77  55  47 CALM      30.04F
VALPARAISO     NOT AVBL

$$

LMZ046-743>745-291800-
SOUTHERN LAKE MICHIGAN

STATION/POSITION TIME  TEMP WIND        PRES
                       AIR  DIR/SP/G
                 (UTC) (F)  (DEG/KT/KT) (MB)
MICHIGAN CITY    1700   66  220/  3/  3   N/A

$$

INZ004-005-014>016-021>024-291800-
NORTH CENTRAL INDIANA

CITY           SKY/WX    TMP DP  RH WIND       PRES   REMARKS
ELKHART        SUNNY     73  55  53 W7        30.03F
LOGANSPORT +   SUNNY     75  52  43 NW5       30.04F
PERU/GRISSOM   SUNNY     74  57  55 NE3       30.03F
ROCHESTER +    SUNNY     77  54  44 NW3       30.04F
SOUTH BEND     SUNNY     75  55  50 W6        30.03F
WARSAW +       SUNNY     73  54  49 CALM      30.03F

$$

INZ006>009-017-018-025>027-291800-
NORTHEAST INDIANA

CITY           SKY/WX    TMP DP  RH WIND       PRES   REMARKS
ANGOLA *+      SUNNY     75  55  50 NW8       30.02F
AUBURN +       SUNNY     73  52  46 N6        30.03F
FORT WAYNE     MOSUNNY   75  55  49 NW6       30.03F
HUNTINGTON +   SUNNY     73  56  53 W6        30.02F

$$

INZ028-029-035-036-043>045-051>053-291800-
WEST CENTRAL INDIANA

CITY           SKY/WX    TMP DP  RH WIND       PRES   REMARKS
GREENCASTLE +  SUNNY     77  46  33 W6        30.04S
LAFAYETTE      SUNNY     76  56  49 N7        30.03F
TERRE HAUTE    SUNNY     80  51  36 VRB7      30.03F

$$

INZ030>032-037>040-046>048-054>057-064-065-291800-
CENTRAL INDIANA

CITY           SKY/WX    TMP DP  RH WIND       PRES   REMARKS
ANDERSON       SUNNY     75  50  41 CALM      30.04F
CP ATTERBURY + SUNNY     79  52  38 N5        30.02F
FRANKFORT +    SUNNY     77  52  41 N6        30.05F
GREENWOOD *+   SUNNY     77  48  36 NW6       30.03F
INDIANAPOLIS   SUNNY     78  48  34 NW8       30.02F
-EAGLE CREEK   SUNNY     78  46  32 VRB7      30.02F
KOKOMO *+      SUNNY     77  54  44 N3        30.03F
MARION +       SUNNY     75  49  39 CALM      30.03F
MT COMFORT *+  SUNNY     77  36  22 W6        30.03F
SHELBYVILLE    SUNNY     80  52  37 NW3       30.01F
ZIONSVILLE +   SUNNY     76  45  32 NW5       30.04F

$$

INZ033-034-041-042-049-050-058-059-291800-
EAST CENTRAL INDIANA

CITY           SKY/WX    TMP DP  RH WIND       PRES   REMARKS
MUNCIE         SUNNY     77  52  41 VRB3      30.02F

$$

INZ060-061-067>069-081>083-085>088-291800-
SOUTHWEST INDIANA

CITY           SKY/WX    TMP DP  RH WIND       PRES   REMARKS
EVANSVILLE     SUNNY     83  53  35 CALM      30.03F
WASHINGTON +   SUNNY     82  55  40 N12       30.01F

$$

INZ062-063-066-070>080-084-089>092-291800-
SOUTH CENTRAL AND SOUTHEAST INDIANA

CITY           SKY/WX    TMP DP  RH WIND       PRES   REMARKS
BLOOMINGTON    SUNNY     79  52  38 N7        30.03F

$$



USA.gov is the U.S. government's official web portal to all federal, state and local government web resources and services.